| time (UTC) | temp C | wind direction | speed KPH | gust KPH | rain 1hr cm | rain 24hr cm | rain mn cm | humidity % | barometer mb |
| 20260904103516 | 20 | 0.0 | 0.0 | 0.00 | 0.00 | 0.00 | 87 | 1020.3 | |
| 20260904102515 | 20 | 0.0 | 0.0 | 0.00 | 0.00 | 0.00 | 87 | 1020.2 | |
| 20260904101515 | 20 | 0.0 | 0.0 | 0.00 | 0.00 | 0.00 | 87 | 1020.1 | |
| 20260904100515 | 20 | 0.0 | 0.0 | 0.00 | 0.00 | 0.00 | 87 | 1020.3 | |
| 20260904095515 | 20 | 0.0 | 0.0 | 0.00 | 0.00 | 0.00 | 85 | 1020.3 | |
| 20260904094515 | 20 | 0.0 | 0.0 | 0.00 | 0.00 | 0.00 | 86 | 1020.4 | |
| 20260904093515 | 20 | 0.0 | 0.0 | 0.00 | 0.00 | 0.00 | 86 | 1020.4 | |
| 20260904092515 | 20 | 0.0 | 0.0 | 0.00 | 0.00 | 0.00 | 86 | 1020.5 | |
| 20260904091515 | 20 | 0.0 | 0.0 | 0.00 | 0.00 | 0.00 | 86 | 1020.5 | |
| 20260904090515 | 20 | 0.0 | 0.0 | 0.00 | 0.00 | 0.00 | 86 | 1020.6 | |
| 20260904085555 | 20 | 0.0 | 0.0 | 0.00 | 0.00 | 0.00 | 87 | 1020.9 | |
| 20260904084515 | 20 | 0.0 | 0.0 | 0.00 | 0.00 | 0.00 | 87 | 1020.7 | |
| 20260904083515 | 20 | 0.0 | 0.0 | 0.00 | 0.00 | 0.00 | 87 | 1020.7 | |
| 20260904082515 | 20 | 0.0 | 0.0 | 0.00 | 0.00 | 0.00 | 88 | 1020.4 | |
| 20260904081517 | 20 | 0.0 | 0.0 | 0.00 | 0.00 | 0.00 | 88 | 1020.4 | |
| 20260904080515 | 20 | 0.0 | 0.0 | 0.00 | 0.00 | 0.00 | 88 | 1020.4 | |
| 20260904075517 | 20 | 0.0 | 0.0 | 0.00 | 0.00 | 0.00 | 88 | 1020.2 | |
| 20260904074535 | 20 | 0.0 | 0.0 | 0.00 | 0.00 | 0.00 | 89 | 1020.3 | |
| 20260904073517 | 20 | 0.0 | 0.0 | 0.00 | 0.00 | 0.00 | 89 | 1020.2 | |
| 20260904072517 | 21 | 0.0 | 0.0 | 0.00 | 0.00 | 0.00 | 89 | 1020.4 | |
| 20260904071537 | 21 | 0.0 | 0.0 | 0.00 | 0.00 | 0.00 | 89 | 1020.5 | |
| 20260904070517 | 21 | 0.0 | 0.0 | 0.00 | 0.00 | 0.00 | 89 | 1020.6 | |
| 20260904065537 | 21 | 0.0 | 0.0 | 0.00 | 0.00 | 0.00 | 89 | 1020.5 | |
| 20260904064517 | 21 | 0.0 | 0.0 | 0.00 | 0.00 | 0.00 | 89 | 1020.6 | |
| 20260904063517 | 21 | 0.0 | 0.0 | 0.00 | 0.00 | 0.00 | 89 | 1020.7 | |
| 20260904062537 | 21 | 0.0 | 0.0 | 0.00 | 0.00 | 0.00 | 89 | 1020.8 | |
| 20260904061557 | 21 | 0.0 | 0.0 | 0.00 | 0.00 | 0.00 | 89 | 1020.9 | |
| 20260904060517 | 21 | 0.0 | 0.0 | 0.00 | 0.00 | 0.00 | 89 | 1021.0 | |
| 20260904055517 | 21 | 0.0 | 0.0 | 0.00 | 0.00 | 0.00 | 89 | 1021.2 | |
| 20260904054517 | 21 | 0.0 | 0.0 | 0.00 | 0.00 | 0.00 | 89 | 1021.4 | |
| 20260904053517 | 21 | 0.0 | 0.0 | 0.00 | 0.00 | 0.00 | 89 | 1021.5 | |
| 20260904052537 | 21 | 0.0 | 0.0 | 0.00 | 0.00 | 0.00 | 89 | 1021.2 | |
| 20260904051517 | 21 | 0.0 | 0.0 | 0.00 | 0.00 | 0.00 | 89 | 1021.3 | |
| 20260904050517 | 22 | 0.0 | 0.0 | 0.00 | 0.00 | 0.00 | 89 | 1021.3 | |
| 20260904045517 | 22 | 0.0 | 0.0 | 0.00 | 0.00 | 0.00 | 89 | 1021.4 | |
| 20260904044517 | 22 | 0.0 | 0.0 | 0.00 | 0.00 | 0.00 | 89 | 1021.4 | |
| 20260904043517 | 22 | 0.0 | 0.0 | 0.00 | 0.00 | 0.00 | 89 | 1021.4 | |
| 20260904042517 | 22 | 0.0 | 0.0 | 0.00 | 0.00 | 0.00 | 88 | 1021.3 | |
| 20260904041517 | 22 | 0.0 | 0.0 | 0.00 | 0.00 | 0.00 | 88 | 1021.5 | |
| 20260904040517 | 22 | 0.0 | 0.0 | 0.00 | 0.00 | 0.00 | 88 | 1021.6 | |
| 20260904035519 | 22 | 0.0 | 0.0 | 0.00 | 0.00 | 0.00 | 87 | 1021.2 | |
| 20260904034517 | 23 | 0.0 | 0.0 | 0.00 | 0.00 | 0.00 | 87 | 1021.2 | |
| 20260904033517 | 23 | 0.0 | 0.0 | 0.00 | 0.00 | 0.00 | 87 | 1021.2 | |
| 20260904032517 | 23 | 0.0 | 0.0 | 0.00 | 0.00 | 0.00 | 86 | 1021.1 | |
| 20260904031517 | 23 | 0.0 | 0.0 | 0.00 | 0.00 | 0.00 | 86 | 1021.0 | |
| 20260904030537 | 23 | 0.0 | 0.0 | 0.00 | 0.00 | 0.00 | 86 | 1021.0 | |
| 20260904025517 | 23 | 0.0 | 0.0 | 0.00 | 0.00 | 0.00 | 86 | 1021.0 | |
| 20260904024537 | 23 | 0.0 | 0.0 | 0.00 | 0.00 | 0.00 | 85 | 1021.0 | |
| 20260904023517 | 23 | 0.0 | 0.0 | 0.00 | 0.00 | 0.00 | 85 | 1021.1 | |
| 20260904022517 | 23 | 0.0 | 0.0 | 0.00 | 0.00 | 0.00 | 85 | 1021.0 | |
| 20260904021517 | 23 | 0.0 | 0.0 | 0.00 | 0.00 | 0.00 | 84 | 1021.1 | |
| 20260904020517 | 24 | 0.0 | 0.0 | 0.00 | 0.00 | 0.00 | 83 | 1021.0 | |
| 20260904015537 | 24 | 0.0 | 0.0 | 0.00 | 0.00 | 0.00 | 82 | 1020.6 | |
| 20260904014517 | 25 | 0.0 | 0.0 | 0.00 | 0.00 | 0.00 | 81 | 1020.5 | |
| 20260904013517 | 25 | 0.0 | 0.0 | 0.00 | 0.00 | 0.00 | 81 | 1020.3 | |
| 20260904012517 | 25 | 0.0 | 0.0 | 0.00 | 0.00 | 0.00 | 80 | 1020.0 | |
| 20260904011517 | 25 | 0.0 | 0.0 | 0.00 | 0.00 | 0.00 | 80 | 1019.9 | |
| 20260904010517 | 25 | 0.0 | 0.0 | 0.00 | 0.00 | 0.00 | 79 | 1019.7 | |
| 20260904005517 | 26 | 0.0 | 0.0 | 0.00 | 0.00 | 0.00 | 79 | 1019.5 | |
| 20260904004516 | 26 | 0.0 | 0.0 | 0.00 | 0.00 | 0.00 | 78 | 1019.4 | |
| 20260904003517 | 26 | 0.0 | 0.0 | 0.00 | 0.00 | 0.00 | 76 | 1019.1 | |
| 20260904002517 | 26 | 0.0 | 0.0 | 0.00 | 0.00 | 0.00 | 75 | 1019.1 | |
| 20260904001517 | 26 | 0.0 | 0.0 | 0.00 | 0.00 | 0.00 | 75 | 1019.0 | |
| 20260904000517 | 27 | 0.0 | 0.0 | 0.00 | 0.00 | 0.00 | 75 | 1018.9 | |
| 20260903235517 | 27 | 0.0 | 0.0 | 0.00 | 0.00 | 0.00 | 74 | 1018.9 | |
| 20260903234517 | 27 | 0.0 | 0.0 | 0.00 | 0.00 | 0.00 | 73 | 1018.9 | |
| 20260903233519 | 28 | 0.0 | 0.0 | 0.00 | 0.00 | 0.00 | 72 | 1018.9 | |
| 20260903232516 | 28 | 0.0 | 0.0 | 0.00 | 0.00 | 0.00 | 70 | 1018.8 | |
| 20260903231517 | 29 | 0.0 | 0.0 | 0.00 | 0.00 | 0.00 | 66 | 1018.8 | |
| 20260903230517 | 30 | 0.0 | 0.0 | 0.00 | 0.00 | 0.00 | 65 | 1019.0 | |
| 20260903225517 | 30 | 0.0 | 0.0 | 0.00 | 0.00 | 0.00 | 65 | 1018.9 | |
| 20260903224516 | 31 | 0.0 | 0.0 | 0.00 | 0.00 | 0.00 | 59 | 1018.9 | |
| 20260903223516 | 31 | 0.0 | 0.0 | 0.00 | 0.00 | 0.00 | 59 | 1019.2 | |
| 20260903222517 | 31 | 0.0 | 0.0 | 0.00 | 0.00 | 0.00 | 58 | 1019.2 | |
| 20260903221516 | 31 | 0.0 | 0.0 | 0.00 | 0.00 | 0.00 | 57 | 1019.1 | |
| 20260903220537 | 32 | 0.0 | 0.0 | 0.00 | 0.00 | 0.00 | 59 | 1019.2 | |
| 20260903215537 | 32 | 0.0 | 0.0 | 0.00 | 0.00 | 0.00 | 58 | 1019.3 | |
| 20260903214516 | 32 | 0.0 | 0.0 | 0.00 | 0.00 | 0.00 | 56 | 1019.2 | |
| 20260903213516 | 33 | 0.0 | 1.6 | 0.00 | 0.00 | 0.00 | 54 | 1019.2 | |
| 20260903212536 | 33 | 0.0 | 0.0 | 0.00 | 0.00 | 0.00 | 53 | 1019.3 | |
| 20260903211516 | 33 | 0.0 | 1.6 | 0.00 | 0.00 | 0.00 | 52 | 1019.4 | |
| 20260903210516 | 33 | 0.0 | 3.2 | 0.00 | 0.00 | 0.00 | 51 | 1019.5 | |
| 20260903205516 | 35 | 0.0 | 1.6 | 0.00 | 0.00 | 0.00 | 50 | 1019.6 | |
| 20260903204536 | 35 | 0.0 | 3.2 | 0.00 | 0.00 | 0.00 | 49 | 1019.9 | |
| 20260903203516 | 36 | 0.0 | 3.2 | 0.00 | 0.00 | 0.00 | 46 | 1020.2 | |
| 20260903202516 | 35 | 0.0 | 0.0 | 0.00 | 0.00 | 0.00 | 48 | 1020.1 | |
| 20260903201516 | 36 | 0.0 | 0.0 | 0.00 | 0.00 | 0.00 | 48 | 1020.1 | |
| 20260903200516 | 35 | 0.0 | 1.6 | 0.00 | 0.00 | 0.00 | 49 | 1020.2 | |
| 20260903195516 | 35 | 0.0 | 1.6 | 0.00 | 0.00 | 0.00 | 49 | 1020.3 | |
| 20260903194516 | 35 | 0.0 | 1.6 | 0.00 | 0.00 | 0.00 | 49 | 1020.4 | |
| 20260903193516 | 34 | 135 | 1.6 | 3.2 | 0.00 | 0.00 | 0.00 | 51 | 1020.5 |
| 20260903192516 | 34 | 135 | 1.6 | 3.2 | 0.00 | 0.00 | 0.00 | 51 | 1020.6 |
| 20260903191516 | 35 | 158 | 1.6 | 3.2 | 0.00 | 0.00 | 0.00 | 50 | 1020.6 |
| 20260903190516 | 35 | 0.0 | 1.6 | 0.00 | 0.00 | 0.00 | 49 | 1020.8 | |
| 20260903185516 | 36 | 158 | 1.6 | 4.8 | 0.00 | 0.00 | 0.00 | 47 | 1020.9 |
| 20260903184516 | 36 | 0.0 | 1.6 | 0.00 | 0.00 | 0.00 | 45 | 1020.9 | |
| 20260903183536 | 35 | 158 | 1.6 | 1.6 | 0.00 | 0.00 | 0.00 | 47 | 1020.9 |
| 20260903182536 | 34 | 0.0 | 1.6 | 0.00 | 0.00 | 0.00 | 50 | 1021.2 | |
| 20260903181516 | 33 | 0.0 | 1.6 | 0.00 | 0.00 | 0.00 | 52 | 1021.2 | |
| 20260903180516 | 33 | 0.0 | 3.2 | 0.00 | 0.00 | 0.00 | 51 | 1021.2 | |
| 20260903175516 | 33 | 0.0 | 0.0 | 0.00 | 0.00 | 0.00 | 53 | 1021.5 | |
| 20260903174516 | 33 | 0.0 | 0.0 | 0.00 | 0.00 | 0.00 | 50 | 1021.6 | |
| 20260903173516 | 33 | 0.0 | 1.6 | 0.00 | 0.00 | 0.00 | 51 | 1021.8 | |
| 20260903172516 | 33 | 0.0 | 1.6 | 0.00 | 0.00 | 0.00 | 52 | 1021.8 | |
| 20260903171516 | 32 | 0.0 | 1.6 | 0.00 | 0.00 | 0.00 | 58 | 1022.0 | |
| 20260903170516 | 32 | 0.0 | 1.6 | 0.00 | 0.00 | 0.00 | 57 | 1022.1 | |
| 20260903165516 | 32 | 0.0 | 1.6 | 0.00 | 0.00 | 0.00 | 54 | 1022.3 | |
| 20260903164516 | 31 | 23 | 1.6 | 6.4 | 0.00 | 0.00 | 0.00 | 54 | 1022.3 |
| 20260903163536 | 31 | 0.0 | 4.8 | 0.00 | 0.00 | 0.00 | 56 | 1022.2 | |
| 20260903162536 | 30 | 0.0 | 3.2 | 0.00 | 0.00 | 0.00 | 60 | 1022.2 | |
| 20260903161536 | 30 | 0.0 | 1.6 | 0.00 | 0.00 | 0.00 | 65 | 1022.3 | |
| 20260903160516 | 30 | 0 | 1.6 | 4.8 | 0.00 | 0.00 | 0.00 | 62 | 1022.4 |
| 20260903155516 | 30 | 0.0 | 1.6 | 0.00 | 0.00 | 0.00 | 65 | 1022.5 | |
| 20260903154516 | 29 | 0.0 | 1.6 | 0.00 | 0.00 | 0.00 | 68 | 1022.4 | |
| 20260903153516 | 28 | 0.0 | 1.6 | 0.00 | 0.00 | 0.00 | 70 | 1022.4 | |
| 20260903152536 | 27 | 0.0 | 0.0 | 0.00 | 0.00 | 0.00 | 73 | 1022.3 | |
| 20260903151516 | 27 | 0.0 | 0.0 | 0.00 | 0.00 | 0.00 | 75 | 1022.3 | |
| 20260903150516 | 26 | 0.0 | 0.0 | 0.00 | 0.00 | 0.00 | 76 | 1022.2 | |
| 20260903145516 | 26 | 0.0 | 0.0 | 0.00 | 0.00 | 0.00 | 78 | 1022.3 | |
| 20260903144516 | 25 | 0.0 | 1.6 | 0.00 | 0.00 | 0.00 | 80 | 1022.3 | |
| 20260903143516 | 25 | 0.0 | 1.6 | 0.00 | 0.00 | 0.00 | 82 | 1022.2 | |
| 20260903142516 | 24 | 0.0 | 0.0 | 0.00 | 0.00 | 0.00 | 85 | 1022.3 | |
| 20260903141516 | 23 | 0.0 | 0.0 | 0.00 | 0.00 | 0.00 | 86 | 1022.2 | |
| 20260903140515 | 23 | 0.0 | 0.0 | 0.00 | 0.00 | 0.00 | 88 | 1022.1 | |
| 20260903135516 | 22 | 0.0 | 0.0 | 0.00 | 0.00 | 0.00 | 89 | 1022.1 | |
| 20260903134515 | 22 | 0.0 | 0.0 | 0.00 | 0.00 | 0.00 | 89 | 1022.1 | |
| 20260903133516 | 22 | 0.0 | 0.0 | 0.00 | 0.00 | 0.00 | 89 | 1022.1 | |
| 20260903132515 | 21 | 0.0 | 0.0 | 0.00 | 0.00 | 0.00 | 89 | 1022.1 | |
| 20260903131536 | 21 | 0.0 | 0.0 | 0.00 | 0.00 | 0.00 | 87 | 1021.9 | |
| 20260903130516 | 21 | 0.0 | 0.0 | 0.00 | 0.00 | 0.00 | 84 | 1021.9 | |
| 20260903125516 | 20 | 0.0 | 0.0 | 0.00 | 0.00 | 0.00 | 83 | 1022.0 | |
| 20260903124515 | 20 | 0.0 | 0.0 | 0.00 | 0.00 | 0.00 | 84 | 1022.1 | |
| 20260903123515 | 20 | 0.0 | 0.0 | 0.00 | 0.00 | 0.00 | 85 | 1022.0 | |
| 20260903122516 | 20 | 0.0 | 0.0 | 0.00 | 0.00 | 0.00 | 86 | 1022.2 | |
| 20260903121515 | 20 | 0.0 | 0.0 | 0.00 | 0.00 | 0.00 | 86 | 1022.3 | |
| 20260903120516 | 20 | 0.0 | 0.0 | 0.00 | 0.00 | 0.00 | 87 | 1022.1 | |
| 20260903115515 | 20 | 0.0 | 0.0 | 0.00 | 0.00 | 0.00 | 87 | 1022.2 | |
| 20260903114515 | 20 | 0.0 | 0.0 | 0.00 | 0.00 | 0.00 | 88 | 1022.2 | |
| 20260903113515 | 20 | 0.0 | 0.0 | 0.00 | 0.00 | 0.00 | 88 | 1022.0 | |
| 20260903112515 | 20 | 0.0 | 0.0 | 0.00 | 0.00 | 0.00 | 88 | 1022.0 | |
| 20260903111536 | 20 | 0.0 | 0.0 | 0.00 | 0.00 | 0.00 | 88 | 1021.9 | |
| 20260903110515 | 20 | 0.0 | 0.0 | 0.00 | 0.00 | 0.00 | 88 | 1021.7 | |
| 20260903105515 | 20 | 0.0 | 0.0 | 0.00 | 0.00 | 0.00 | 87 | 1021.7 | |
| 20260903104515 | 20 | 0.0 | 0.0 | 0.00 | 0.00 | 0.00 | 87 | 1021.7 |